Weather in Gari

Russia / Ivanovo Oblast     56°55′23″N   39°41′12″E
temp.,
°C
wind,
m/s
gust,
m/s
humid.,
%
clouds,
%
prec.,
mm/h
press.,
hPa
HPBL,
m
6 august, fri
fri600:00+15ese238489 0.3 101560
03:00+14ese41189100 0.6 1014261
06:00+14ese4988100 0.1 1013247
09:00+17s347427 0.2 1013350
12:00+24ssw564694 0.1 10131485
15:00+20s5767100 0.3 1013443
18:00+16sse3795100 1.1 1013285
21:00+16ese5999100 5.7 1013329
7 august, sat
sat700:00+16e51098100 4.8 1013351
03:00+16ene5139699 4.9 1012455
06:00+15e61196100 0.0 1012355
09:00+18ese688898 0.7 1011443
12:00+21se5780100 2.8 1011759
15:00+27s5854100 3.3 10111365
18:00+26sse4756100 0.0 1011339
21:00+19s4884100 0.4 1012155
8 august, sun
sun800:00+19ese2279100 0.0 101235
03:00+19se41170100 0.0 1012273
06:00+19sse31070100 0.1 1013259
09:00+20ssw3765100 0.1 1013311
12:00+23sse3468100 0.0 1014316
15:00+22s4674100 0.1 1015494
18:00+24ssw365746 0.0 1015578
21:00+18wsw22770 0.0 101612
9 august, mon
mon900:00+17wsw12850 0.0 101811
03:00+16w22880 0.0 101811
06:00+17w22865 0.0 101958
09:00+22wsw346321 0.0 1019641
12:00+26w34485 0.0 10191448
15:00+28w33415 0.0 10181769
18:00+27w23460 0.0 1018441
21:00+20n116627 0.0 101911
10 august, tue
tue1000:00+19ese2271100 0.0 101911
03:00+19sse2272100 0.0 101929
06:00+19s2265100 0.0 101944
09:00+22s1268100 0.0 1019134
12:00+22se2363100 0.0 1019113
15:00+23sse3459100 0.0 1019265
18:00+21s4772100 0.0 1019286
21:00+18se2387100 0.0 101877